Flag for Nigeria Weather past 2 weeks in Enugu, Nigeria

Now
75 °F

Passing clouds.


Feels Like: 74 °F
Forecast: 73 / 80 °F
Wind: 5 mph from West

Location: Malabo/Fernando Poo

Current Time: Sep 15, 2014 at 3:36:16 AM

Latest Report: Sep 15, 2014 at 3:00 AM


Visibility: N/A

Pressure: 29.92 "Hg

Humidity: 94%

Dew point: 73 °F

Location of EnuguLocation

Historic Weather in Enugu — Graph

°F

Enugu temperature yesterday

Maximum temperature yesterday: 82 °F (at 10:00 AM)
Minimum temperature yesterday: 72 °F (at 12:00 AM)
Average temperature yesterday: 77 °F

Past Weeks' High & Low Weather Summary

 TemperatureHumidityPressure
High84 °F (Sep 4, 11:00 AM)100% (Sep 3, 7:00 AM)30.04 "Hg (Sep 3, 7:00 AM)
Low72 °F (Sep 3, 7:00 AM)70% (Sep 4, 10:00 AM)29.83 "Hg (Sep 5, 4:00 PM)
Average77 °F87%29.93 "Hg
* Reported Aug 31 2:00 AM — Sep 15 2:00 AM, Enugu, Weather by CustomWeather, © 2014

Note: Actual official high and low records may vary slightly from our data, if they occured in-between our weather recording intervals... More about our weather records

Advertising

Enugu weather history for previous 24 hours

 ConditionsComfort  
Time TempWeatherWind HumidityBarometerVisibility
2:00 AM
Sep 15
75 °FPassing clouds.5 mph94%29.92 "HgN/A
1:00 AM77 °FPassing clouds.6 mph89%29.92 "HgN/A
12:00 AM77 °FPassing clouds.8 mph89%29.92 "HgN/A
11:00 PM
Sep 14
75 °FPassing clouds.7 mph94%29.95 "HgN/A
10:00 PM77 °FPassing clouds.8 mph89%29.95 "HgN/A
9:00 PM77 °FPassing clouds.6 mph89%29.95 "HgN/A
8:00 PM77 °FPassing clouds.7 mph89%29.92 "HgN/A
7:00 PM77 °FPartly cloudy.8 mph89%29.92 "HgN/A
6:00 PM77 °FBroken clouds.10 mph94%29.89 "HgN/A
5:00 PM79 °FBroken clouds.8 mph84%29.86 "HgN/A
4:00 PM79 °FBroken clouds.7 mph84%29.86 "HgN/A
3:00 PM81 °FBroken clouds.8 mph79%29.89 "HgN/A
2:00 PM81 °FBroken clouds.8 mph79%29.92 "HgN/A
1:00 PM82 °FBroken clouds.9 mph79%29.92 "HgN/A
12:00 PM82 °FPartly sunny.8 mph74%29.95 "HgN/A
11:00 AM81 °FPartly sunny.8 mph79%29.98 "HgN/A
10:00 AM82 °FPartly sunny.5 mph74%29.98 "HgN/A
9:00 AM81 °FPartly sunny.8 mph79%29.98 "HgN/A
8:00 AM77 °FBroken clouds.No wind89%29.98 "HgN/A
7:30 AM75 °FBroken clouds.No wind94%29.95 "HgN/A
7:00 AM73 °FBroken clouds.No wind94%29.95 "HgN/A
6:00 AM73 °FPartly cloudy.5 mph94%29.92 "HgN/A
5:00 AM73 °FPartly cloudy.No wind94%29.92 "HgN/A
3:00 AM75 °FPartly cloudy.5 mph89%29.92 "HgN/A
Weather by CustomWeather, © 2014

See weather overviewHow to use our weather pages